Weather reports worldwide

Advertisment
Stonyhurst, United Kingdom (99060): temperature & dewpoint: 13.06.2018 00:00:00 - 19.06.2018 00:00:00 (BST)Stonyhurst, United Kingdom (99060): precipitation: 13.06.2018 00:00:00 - 19.06.2018 00:00:00 (BST)
Date & Time tt [°C] td [°C] rr [mm]
19.06.2018 00:00:00 13,9 13,6 -
18.06.2018 23:00:00 14,3 14,1 0,6
18.06.2018 22:00:00 14,7 14,5 1,6
18.06.2018 21:00:00 14,8 14,5 1,8
18.06.2018 20:00:00 14,7 14,3 0,6
18.06.2018 19:00:00 14,6 14,0 0,0
18.06.2018 18:00:00 14,0 13,5 0,2
18.06.2018 17:00:00 13,8 12,9 0,4
18.06.2018 16:00:00 15,5 10,9 0,0
18.06.2018 15:00:00 15,8 9,9 0,0
18.06.2018 14:00:00 15,7 10,2 0,0
18.06.2018 13:00:00 15,6 9,7 0,0
18.06.2018 12:00:00 14,4 8,8 0,0
18.06.2018 11:00:00 14,5 8,2 0,0
18.06.2018 10:00:00 13,8 8,9 0,0
18.06.2018 09:00:00 12,9 9,1 0,0
18.06.2018 08:00:00 12,6 10,3 0,0
18.06.2018 07:00:00 12,6 10,5 0,0
18.06.2018 06:00:00 12,5 10,5 0,0
18.06.2018 05:00:00 12,7 10,6 0,0
18.06.2018 04:00:00 13,1 11,7 0,2
18.06.2018 03:00:00 13,5 12,0 0,0
18.06.2018 02:00:00 14,0 12,8 0,0
18.06.2018 01:00:00 14,3 13,8 0,0
18.06.2018 00:00:00 14,4 14,1 0,0
17.06.2018 23:00:00 14,7 14,4 0,8
17.06.2018 22:00:00 14,9 14,4 0,4
17.06.2018 21:00:00 14,9 14,4 0,2
17.06.2018 20:00:00 14,9 14,0 0,0
17.06.2018 19:00:00 14,9 13,3 0,0
17.06.2018 18:00:00 14,6 12,8 0,0
17.06.2018 17:00:00 15,6 11,8 0,0
17.06.2018 16:00:00 15,8 10,9 0,0
17.06.2018 15:00:00 15,6 9,9 0,0
17.06.2018 14:00:00 15,6 9,1 0,0
17.06.2018 13:00:00 15,5 8,0 0,0
17.06.2018 12:00:00 14,2 10,5 0,0
17.06.2018 11:00:00 14,2 10,0 0,0
17.06.2018 10:00:00 13,3 9,7 0,0
17.06.2018 09:00:00 12,7 10,1 0,0
17.06.2018 08:00:00 12,2 10,1 0,0
17.06.2018 07:00:00 12,1 10,1 0,0
17.06.2018 06:00:00 12,1 10,1 0,0
17.06.2018 05:00:00 12,0 10,0 0,0
17.06.2018 04:00:00 12,0 10,1 0,0
17.06.2018 03:00:00 12,2 10,2 0,0
17.06.2018 02:00:00 12,7 10,0 0,0
17.06.2018 01:00:00 12,3 10,0 0,0
17.06.2018 00:00:00 12,1 9,6 0,0
16.06.2018 23:00:00 13,1 10,0 0,0
16.06.2018 22:00:00 13,6 9,6 0,0
16.06.2018 21:00:00 14,0 9,9 0,0
16.06.2018 20:00:00 14,4 9,5 0,0
16.06.2018 19:00:00 14,9 8,8 0,0
16.06.2018 18:00:00 15,1 8,9 0,0
16.06.2018 17:00:00 14,2 10,2 0,0
16.06.2018 16:00:00 14,1 12,8 3,2
16.06.2018 15:00:00 13,7 12,3 5,4
16.06.2018 14:00:00 14,9 12,1 0,0
16.06.2018 13:00:00 13,9 11,6 0,0
16.06.2018 12:00:00 12,5 10,8 0,8
16.06.2018 11:00:00 12,1 9,9 0,2
16.06.2018 10:00:00 11,8 9,6 0,0
16.06.2018 09:00:00 12,5 10,1 0,0
16.06.2018 08:00:00 10,8 8,7 0,0
16.06.2018 07:00:00 9,6 7,8 0,2
16.06.2018 06:00:00 8,8 7,0 0,0
16.06.2018 05:00:00 8,8 7,1 0,0
16.06.2018 04:00:00 8,0 6,9 0,0
16.06.2018 03:00:00 7,5 6,2 0,0
16.06.2018 02:00:00 8,5 6,7 0,0
16.06.2018 01:00:00 10,0 7,4 0,0
16.06.2018 00:00:00 10,8 7,7 0,0
15.06.2018 23:00:00 10,1 7,0 0,0
15.06.2018 22:00:00 11,3 6,7 0,0
15.06.2018 21:00:00 12,8 6,8 0,0
15.06.2018 20:00:00 14,0 6,2 0,0
15.06.2018 19:00:00 14,6 6,0 0,0
15.06.2018 18:00:00 14,9 5,7 0,0
15.06.2018 17:00:00 14,8 6,1 0,0
15.06.2018 16:00:00 14,3 7,0 0,0
15.06.2018 15:00:00 14,2 5,8 0,0
15.06.2018 14:00:00 14,7 6,1 0,0
15.06.2018 13:00:00 13,7 6,8 0,0
15.06.2018 12:00:00 14,0 7,9 0,0
15.06.2018 11:00:00 13,6 7,8 0,0
15.06.2018 10:00:00 13,0 7,1 0,0
15.06.2018 09:00:00 12,4 8,3 0,0
15.06.2018 08:00:00 12,3 7,9 0,0
15.06.2018 07:00:00 12,0 8,3 0,0
15.06.2018 06:00:00 11,9 8,6 0,0
15.06.2018 05:00:00 11,8 8,3 0,0
15.06.2018 04:00:00 11,7 8,7 0,0
15.06.2018 03:00:00 12,1 8,8 0,0
15.06.2018 02:00:00 12,3 9,0 0,0
15.06.2018 01:00:00 12,0 8,9 0,0
15.06.2018 00:00:00 12,4 9,3 0,0
14.06.2018 23:00:00 12,3 9,3 0,0
14.06.2018 22:00:00 13,2 8,5 0,0
14.06.2018 21:00:00 14,4 7,8 0,0
14.06.2018 20:00:00 14,9 7,9 0,0
14.06.2018 19:00:00 16,0 7,4 0,0
14.06.2018 18:00:00 16,5 6,1 0,0
14.06.2018 17:00:00 15,6 7,0 0,0
14.06.2018 16:00:00 16,5 7,1 0,0
14.06.2018 15:00:00 16,3 7,5 0,0
14.06.2018 14:00:00 16,1 9,1 0,0
14.06.2018 13:00:00 14,3 9,0 0,0
14.06.2018 12:00:00 14,3 9,4 0,0
14.06.2018 11:00:00 15,0 9,4 0,0
14.06.2018 10:00:00 14,5 9,4 0,0
14.06.2018 09:00:00 14,9 9,8 0,0
14.06.2018 08:00:00 16,2 11,6 0,0
14.06.2018 07:00:00 15,5 13,0 0,0
14.06.2018 06:00:00 14,7 12,4 0,0
14.06.2018 05:00:00 14,3 11,8 0,0
14.06.2018 04:00:00 13,9 11,8 0,0
14.06.2018 03:00:00 13,9 12,0 0,0
14.06.2018 02:00:00 13,8 12,0 0,0
14.06.2018 01:00:00 13,5 12,1 0,4
14.06.2018 00:00:00 13,6 11,9 0,0
13.06.2018 23:00:00 13,5 12,3 0,6
13.06.2018 22:00:00 13,8 12,1 0,8
13.06.2018 21:00:00 16,2 10,2 0,0
13.06.2018 20:00:00 17,0 10,5 0,0
13.06.2018 19:00:00 17,8 10,4 0,0
13.06.2018 18:00:00 18,2 9,4 0,0
13.06.2018 17:00:00 19,1 10,1 0,0
13.06.2018 16:00:00 19,0 10,0 0,0
13.06.2018 15:00:00 18,9 8,8 0,0
13.06.2018 14:00:00 18,1 7,8 0,0
13.06.2018 13:00:00 17,7 7,2 0,0
13.06.2018 12:00:00 17,4 8,0 0,0
13.06.2018 11:00:00 16,4 10,7 0,0
13.06.2018 10:00:00 15,3 9,1 0,0
13.06.2018 09:00:00 13,7 8,8 0,0
13.06.2018 08:00:00 12,5 10,2 0,0
13.06.2018 07:00:00 9,2 8,2 0,0
13.06.2018 06:00:00 8,6 7,6 0,0
13.06.2018 05:00:00 7,8 7,1 0,0
13.06.2018 04:00:00 8,4 7,4 0,0
13.06.2018 03:00:00 8,8 7,8 0,0
13.06.2018 02:00:00 9,7 8,4 0,0
13.06.2018 01:00:00 10,0 8,8 0,0
13.06.2018 00:00:00 11,3 8,8 0,0

tt = temperature
td = dewpoint
rr = precipitation

Next stations